When you browse on this site, cookies collect data to enhance your experience and personalize the content and advertising you see.
Visit our Privacy Policy to learn more. By continuing to use the site, you agree to this use of cookies and data.
  • en Suisse
  • Liste des pays
  • À 7 jours
  • Température de l'eau
  • Carte météo
  • Widgets météo
  • user-avatar
    Se connecter

    Météo par heure à Newcastle

    Ce jour, 10 Avril, Vendredi

    Heure Température Précipitation Vent Pression Humidité
    00:00 +8°C° 0 mm 4 m/s 756 mmHg 88%
    01:00 +9°C° 0 mm 3 m/s 756 mmHg 87%
    02:00 +9°C° 0 mm 3 m/s 755 mmHg 85%
    03:00 +9°C° 0 mm 3 m/s 755 mmHg 84%
    04:00 +8°C° 0 mm 3 m/s 755 mmHg 84%
    05:00 +8°C° 0 mm 3 m/s 755 mmHg 85%
    06:00 +7°C° 0 mm 3 m/s 755 mmHg 86%
    07:00 +9°C° 0 mm 3 m/s 755 mmHg 83%
    08:00 +10°C° 0 mm 3 m/s 755 mmHg 81%
    09:00 +12°C° 0 mm 3 m/s 755 mmHg 78%
    10:00 +13°C° 0 mm 4 m/s 755 mmHg 76%
    11:00 +15°C° 0 mm 4 m/s 755 mmHg 73%
    12:00 +18°C° 0 mm 4 m/s 755 mmHg 71%
    13:00 +18°C° 0.1 mm 4 m/s 754 mmHg 71%
    14:00 +19°C° 0.1 mm 4 m/s 754 mmHg 71%
    15:00 +19°C° 0.1 mm 4 m/s 753 mmHg 71%
    16:00 +19°C° 0.5 mm 3 m/s 753 mmHg 74%
    17:00 +18°C° 0.5 mm 3 m/s 753 mmHg 77%
    18:00 +17°C° 0.5 mm 2 m/s 753 mmHg 80%
    19:00 +16°C° 0.1 mm 2 m/s 753 mmHg 83%
    20:00 +15°C° 0.1 mm 2 m/s 753 mmHg 85%
    21:00 +13°C° 0.1 mm 2 m/s 754 mmHg 88%
    22:00 +13°C° 0 mm 2 m/s 753 mmHg 89%
    23:00 +12°C° 0 mm 2 m/s 753 mmHg 90%

    Demain, 11 Avril, Samedi

    Heure Température Précipitation Vent Pression Humidité
    00:00 +12°C° 0 mm 2 m/s 753 mmHg 91%
    01:00 +10°C° 0 mm 2 m/s 753 mmHg 92%
    02:00 +10°C° 0 mm 2 m/s 753 mmHg 92%
    03:00 +10°C° 0 mm 2 m/s 753 mmHg 92%
    04:00 +10°C° 0 mm 2 m/s 753 mmHg 92%
    05:00 +11°C° 0 mm 1 m/s 753 mmHg 91%
    06:00 +11°C° 0 mm 1 m/s 753 mmHg 91%
    07:00 +12°C° 0 mm 1 m/s 753 mmHg 86%
    08:00 +14°C° 0 mm 1 m/s 753 mmHg 82%
    09:00 +15°C° 0 mm 1 m/s 753 mmHg 77%
    10:00 +16°C° 0 mm 1 m/s 753 mmHg 74%
    11:00 +18°C° 0 mm 2 m/s 753 mmHg 70%
    12:00 +19°C° 0 mm 2 m/s 753 mmHg 67%
    13:00 +19°C° 0.1 mm 2 m/s 752 mmHg 67%
    14:00 +19°C° 0.1 mm 3 m/s 752 mmHg 68%
    15:00 +19°C° 0.1 mm 3 m/s 752 mmHg 68%
    16:00 +17°C° 0.1 mm 3 m/s 752 mmHg 73%
    17:00 +16°C° 0.1 mm 3 m/s 752 mmHg 78%
    18:00 +14°C° 0.1 mm 4 m/s 752 mmHg 82%
    19:00 +12°C° 0 mm 3 m/s 752 mmHg 86%
    20:00 +11°C° 0 mm 3 m/s 752 mmHg 89%
    21:00 +9°C° 0 mm 3 m/s 752 mmHg 92%
    22:00 +9°C° 0 mm 2 m/s 752 mmHg 92%
    23:00 +8°C° 0 mm 2 m/s 752 mmHg 91%

    Après-demain, 12 Avril, Dimanche

    Heure Température Précipitation Vent Pression Humidité
    00:00 +7°C° 0 mm 2 m/s 752 mmHg 90%
    01:00 +8°C° 0 mm 1 m/s 751 mmHg 90%
    02:00 +8°C° 0 mm 1 m/s 750 mmHg 90%
    03:00 +7°C° 0 mm 1 m/s 750 mmHg 89%
    04:00 +7°C° 0 mm 1 m/s 750 mmHg 89%
    05:00 +7°C° 0 mm 1 m/s 749 mmHg 89%
    06:00 +7°C° 0 mm 1 m/s 749 mmHg 89%
    07:00 +9°C° 0 mm 1 m/s 748 mmHg 84%
    08:00 +11°C° 0 mm 1 m/s 748 mmHg 79%
    09:00 +13°C° 0 mm 1 m/s 747 mmHg 73%
    10:00 +14°C° 0.1 mm 1 m/s 747 mmHg 72%
    11:00 +15°C° 0.1 mm 1 m/s 746 mmHg 71%
    12:00 +18°C° 0.1 mm 1 m/s 746 mmHg 70%
    13:00 +17°C° 0.6 mm 2 m/s 745 mmHg 70%
    14:00 +17°C° 0.6 mm 3 m/s 744 mmHg 70%
    15:00 +17°C° 0.6 mm 3 m/s 743 mmHg 70%
    16:00 +17°C° 0.9 mm 3 m/s 743 mmHg 74%
    17:00 +16°C° 0.9 mm 3 m/s 743 mmHg 79%
    18:00 +14°C° 0.9 mm 3 m/s 743 mmHg 83%
    19:00 +13°C° 0.4 mm 4 m/s 743 mmHg 85%
    20:00 +12°C° 0.4 mm 5 m/s 744 mmHg 88%
    21:00 +9°C° 0.4 mm 6 m/s 744 mmHg 91%
    22:00 +9°C° 0.1 mm 6 m/s 745 mmHg 89%
    23:00 +8°C° 0.1 mm 7 m/s 745 mmHg 87%

    13 Avril, Lundi

    Heure Température Précipitation Vent Pression Humidité
    00:00 +6°C° 0.1 mm 7 m/s 746 mmHg 85%
    01:00 +6°C° 0 mm 8 m/s 746 mmHg 86%
    02:00 +6°C° 0 mm 8 m/s 747 mmHg 87%
    03:00 +6°C° 0 mm 8 m/s 747 mmHg 89%
    04:00 +6°C° 0 mm 9 m/s 748 mmHg 86%
    05:00 +5°C° 0 mm 9 m/s 749 mmHg 84%
    06:00 +5°C° 0 mm 10 m/s 749 mmHg 82%
    07:00 +5°C° 0 mm 10 m/s 750 mmHg 80%
    08:00 +6°C° 0 mm 10 m/s 751 mmHg 78%
    09:00 +6°C° 0 mm 10 m/s 752 mmHg 76%
    10:00 +6°C° 0 mm 9 m/s 753 mmHg 71%
    11:00 +7°C° 0 mm 9 m/s 753 mmHg 65%
    12:00 +7°C° 0 mm 9 m/s 754 mmHg 59%
    13:00 +7°C° 0 mm 9 m/s 754 mmHg 60%
    14:00 +7°C° 0 mm 8 m/s 754 mmHg 60%
    15:00 +7°C° 0 mm 8 m/s 754 mmHg 60%
    16:00 +6°C° 0 mm 7 m/s 754 mmHg 62%
    17:00 +5°C° 0 mm 6 m/s 755 mmHg 65%
    18:00 +4°C° 0 mm 6 m/s 755 mmHg 68%
    19:00 +3°C° 0 mm 5 m/s 755 mmHg 71%
    20:00 +1°C° 0 mm 5 m/s 755 mmHg 75%
    21:00 0°C° 0 mm 4 m/s 756 mmHg 79%
    22:00 -1°C° 0 mm 4 m/s 756 mmHg 82%
    23:00 0°C° 0 mm 3 m/s 756 mmHg 85%

    14 Avril, Mardi

    Heure Température Précipitation Vent Pression Humidité
    00:00 -1°C° 0 mm 3 m/s 756 mmHg 88%
    01:00 -1°C° 0 mm 3 m/s 756 mmHg 89%
    02:00 -1°C° 0 mm 3 m/s 755 mmHg 91%
    03:00 -1°C° 0 mm 3 m/s 755 mmHg 92%
    04:00 -1°C° 0 mm 3 m/s 755 mmHg 92%
    05:00 -1°C° 0 mm 3 m/s 755 mmHg 91%
    06:00 -1°C° 0 mm 3 m/s 755 mmHg 91%
    07:00 +1°C° 0 mm 3 m/s 755 mmHg 84%
    08:00 +3°C° 0 mm 4 m/s 755 mmHg 77%
    09:00 +5°C° 0 mm 4 m/s 755 mmHg 70%
    10:00 +6°C° 0 mm 5 m/s 754 mmHg 67%
    11:00 +7°C° 0 mm 5 m/s 754 mmHg 65%
    12:00 +8°C° 0 mm 5 m/s 754 mmHg 62%
    13:00 +8°C° 0 mm 5 m/s 753 mmHg 62%
    14:00 +9°C° 0 mm 5 m/s 753 mmHg 61%
    15:00 +9°C° 0 mm 5 m/s 753 mmHg 61%
    16:00 +8°C° 0 mm 5 m/s 752 mmHg 64%
    17:00 +7°C° 0 mm 5 m/s 752 mmHg 68%
    18:00 +6°C° 0 mm 5 m/s 751 mmHg 72%
    19:00 +3°C° 0 mm 5 m/s 751 mmHg 77%
    20:00 +2°C° 0 mm 5 m/s 751 mmHg 82%
    21:00 0°C° 0 mm 5 m/s 752 mmHg 87%
    22:00 0°C° 0 mm 5 m/s 752 mmHg 88%
    23:00 0°C° 0 mm 5 m/s 752 mmHg 90%

    15 Avril, Mercredi

    Heure Température Précipitation Vent Pression Humidité
    00:00 -1°C° 0 mm 5 m/s 752 mmHg 91%
    01:00 -1°C° 0 mm 5 m/s 751 mmHg 91%
    02:00 -1°C° 0 mm 4 m/s 751 mmHg 91%
    03:00 -1°C° 0 mm 4 m/s 751 mmHg 91%
    04:00 -1°C° 0 mm 4 m/s 751 mmHg 91%
    05:00 -1°C° 0 mm 4 m/s 750 mmHg 91%
    06:00 0°C° 0 mm 4 m/s 750 mmHg 91%
    07:00 +1°C° 0 mm 5 m/s 750 mmHg 84%
    08:00 +3°C° 0 mm 6 m/s 750 mmHg 77%
    09:00 +5°C° 0 mm 6 m/s 751 mmHg 70%
    10:00 +6°C° 0 mm 7 m/s 750 mmHg 67%
    11:00 +8°C° 0 mm 7 m/s 750 mmHg 64%
    12:00 +9°C° 0 mm 7 m/s 749 mmHg 61%
    13:00 +10°C° 0 mm 8 m/s 749 mmHg 61%
    14:00 +10°C° 0 mm 8 m/s 749 mmHg 60%
    15:00 +10°C° 0 mm 8 m/s 748 mmHg 60%
    16:00 +9°C° 0 mm 8 m/s 748 mmHg 62%
    17:00 +6°C° 0 mm 7 m/s 748 mmHg 65%
    18:00 +5°C° 0 mm 7 m/s 748 mmHg 67%
    19:00 +4°C° 0 mm 7 m/s 748 mmHg 71%
    20:00 +3°C° 0 mm 6 m/s 748 mmHg 75%
    21:00 +1°C° 0 mm 5 m/s 748 mmHg 79%
    22:00 +1°C° 0 mm 6 m/s 748 mmHg 81%
    23:00 +1°C° 0 mm 6 m/s 748 mmHg 83%
    Voir plus